Regional Weather Roundup
Issued by NWS

Home | Current Version | Previous Version | Graphics & Text | Print | Product List | Glossary On
Versions: 1 2 3 4 5 6 7 8 9 10 11 12 13 14 15 16 17 18 19 20 21 22 23 24 25 26 27 28 29 30 31 32 33 34 35 36 37 38 39 40 41 42 43 44 45 46 47 48 49 50
000
ASUS44 KMEG 061100
RWRTN
TENNESSEE HOURLY STATE WEATHER ROUNDUP
NATIONAL WEATHER SERVICE MEMPHIS TN
500 AM CST FRI MAR 06 2015

TNZ002-004-019-021-049-052-054-088>092-061200-
WEST TENNESSEE

CITY           SKY/WX    TMP DP  RH WIND       PRES   REMARKS
MEMPHIS INTL   PTCLDY    17   8  67 NE6       30.58R WCI   9
NWS MEMPHIS      N/A     11 N/A N/A MISG        N/A
JACKSON        PTCLDY     8   3  80 CALM      30.58R
DYERSBURG      PTCLDY    10  -6  48 CALM      30.61R
UNION CITY       N/A      5   3  92 CALM      30.58R VSB 1/4
PARIS            N/A     -2  -9  71 NE3       30.57R
LEXINGTON      CLEAR      7   1  78 CALM      30.55R
SAVANNAH       CLEAR     12   7  79 CALM      30.56R
$$

TNZ008-025-027-028-033-062-065-066-061200-
NORTH MIDDLE TENNESSEE

CITY           SKY/WX    TMP DP  RH WIND       PRES   REMARKS
NASHVILLE      PTCLDY    11   6  81 NW5       30.56R WCI   3
CLARKSVILLE    MOCLDY     2  -1  88 W6        30.57R WCI  -9
COOKEVILLE     CLEAR     12  10  92 CALM      30.48R
CROSSVILLE     PTCLDY    12   8  84 NE5       30.41S WCI   4
$$

TNZ061-075-076-078-094-096-097-061200-
SOUTH MIDDLE TENNESSEE

CITY           SKY/WX    TMP DP  RH WIND       PRES   REMARKS
FAYETTEVILLE   CLEAR     12   9  85 N7          N/A  WCI   2
TULLAHOMA      CLEAR     10   7  85 N5          N/A  WCI   2
WINCHESTER     CLEAR     14  12  92 CALM      30.47S
COLUMBIA         N/A     10  10 100 CALM      30.52R
SHELBYVILLE    CLEAR     12   9  85 CALM      30.52R
$$

TNZ017-018-042-046-047-061200-
NORTHEAST TENNESSEE

CITY           SKY/WX    TMP DP  RH WIND       PRES   REMARKS
TRI CITIES     MOCLDY    15  10  80 N3        30.46R
ELIZABETHTON   CLOUDY    18  12  79 CALM      30.43R
$$

TNZ012-013-036-069-073-074-061200-
CENTRAL EAST TENNESSEE

CITY           SKY/WX    TMP DP  RH WIND       PRES   REMARKS
KNOXVILLE      FLURRIES  20  14  77 N9        30.47R WCI   9
OAK RIDGE      PTCLDY    17  10  74 NE5       30.50R WCI  10
GATLINBURG     CLOUDY    21  16  79 NE7       30.46R WCI  13
$$

TNZ083-085-099-061200-
SOUTHEAST TENNESSEE

CITY           SKY/WX    TMP DP  RH WIND       PRES   REMARKS
CHATTANOOGA    MOCLDY    23  12  62 N12       30.47R WCI  12
$$

SKY/WX REPORTED AS FAIR MEANS FEW OR NO CLOUDS BELOW
12 THOUSAND FEET.



USA.gov is the U.S. government's official web portal to all federal, state and local government web resources and services.